This demonstration page uses our WeatherBlox Daily Observations layout. Learn more.

Left ArrowRight Arrow

39.08367, -84.50855

Hourly Observations for August 14, 2017

Temp ( °F °C ) Dew Point ( °F °C ) Humidity (%) Winds ( mph kmh ) Pressure ( in mb ) Visibility ( mi km ) Precip ( " mm )
12:53 am 00:53 Clear 64 17.8 63 17.2 96 96 N N/A 29.98 1015 10 16.0934 N/A
1:53 am 01:53 Clear 64 17.8 63 17.2 96 96 N N/A 29.97 1015 10 16.0934 N/A
2:53 am 02:53 Clear 64 17.8 63 17.2 96 96 N N/A 29.96 1015 10 16.0934 N/A
3:53 am 03:53 Clear 64 17.8 63 17.2 96 96 N N/A 29.96 1015 10 16.0934 N/A
4:53 am 04:53 Mostly Clear 64 17.8 63 17.2 96 96 NNE 3 6 29.95 1014 10 16.0934 N/A
5:53 am 05:53 Clear 64 17.8 64 17.8 100 100 N N/A 29.95 1014 10 16.0934 N/A
6:53 am 06:53 Mostly Sunny 65 18.3 64 17.8 97 97 N N/A 29.96 1015 10 16.0934 N/A
7:53 am 07:53 Mostly Cloudy 65 18.3 64 17.8 97 97 N N/A 29.96 1015 10 16.0934 N/A
8:53 am 08:53 Mostly Cloudy 68 20 65 18.3 90 90 N N/A 29.96 1015 10 16.0934 N/A
9:53 am 09:53 Mostly Cloudy 71 21.7 65 18.3 81 81 N N/A 29.95 1014 10 16.0934 N/A
10:53 am 10:53 Partly Cloudy 76 24.4 64 17.8 67 67 S 7 11 29.94 1014 10 16.0934 N/A
11:53 am 11:53 Partly Cloudy 77 25 66 18.9 69 69 S 5 7 29.93 1014 10 16.0934 N/A
12:53 pm 12:53 Cloudy 79 26.1 69 20.6 72 72 SSW 7 11 29.92 1013 10 16.0934 N/A
1:53 pm 13:53 Mostly Cloudy 81 27.2 70 21.1 69 69 S 5 7 29.91 1013 10 16.0934 N/A
2:53 pm 14:53 Cloudy 80 26.7 69 20.6 69 69 SSE 9 15 29.9 1012 10 16.0934 N/A
3:13 pm 15:13 Cloudy with Light Rain 78 25.6 70 21.1 76 76 SSE 7 11 29.91 1013 6 9.65604 0.01 0.254
3:53 pm 15:53 Cloudy 74 23.3 72 22.2 94 94 N N/A 29.9 1012 10 16.0934 0.04 1.016
4:53 pm 16:53 Cloudy 77 25 73 22.8 88 88 N N/A 29.86 1011 10 16.0934 N/A
5:53 pm 17:53 Sunny 79 26.1 73 22.8 82 82 S 8 13 29.85 1011 10 16.0934 N/A
6:53 pm 18:53 Mostly Sunny 78 25.6 69 20.6 74 74 SSW 9 15 29.85 1011 10 16.0934 N/A
7:53 pm 19:53 Sunny 75 23.9 71 21.7 88 88 N N/A 29.85 1011 10 16.0934 N/A
8:53 pm 20:53 Mostly Cloudy 72 22.2 71 21.7 97 97 S 5 7 29.85 1011 10 16.0934 N/A
9:53 pm 21:53 Cloudy 73 22.8 70 21.1 90 90 N N/A 29.86 1011 10 16.0934 N/A
10:53 pm 22:53 Mostly Cloudy 71 21.7 70 21.1 96 96 N N/A 29.87 1011 10 16.0934 N/A
11:53 pm 23:53 Clear 69 20.6 69 20.6 100 100 N N/A 29.87 1011 10 16.0934 N/A

Powered by AerisWeather